SL-16 DEB, 22616

Orbit data source: Space-Track

SL-16 DEB, 22616 is space debris in LEO originally from a launch on Fri, 26 Mar 1993 UTC launched from the Tyuratam Missile And Space Complex (TTMTR). Debris objects in space refer to the collection of defunct objects orbiting the Earth. Examples of debris include non-operational satellites, rocket bodies, and fragments generated from explosions, collisions, or faulty payload assembly.

Loading next visibility...
SL-16 DEB details
Identifier
22616, 1993-016AA
Orbit
LEO
Last TLE update11 hours ago
Origin
Flag of CISRVSN RF (CIS)
ManufacturerUnknown
MissionSpacecraft
Bus & MotorUnknown
MassUnknown
Launch date (UTC)
1993-03-26 (32 years ago)
Launch vehicleUnknown
Launch site
Tyuratam Missile And Space Complex (TTMTR)
Object type
Payload
Rocket body
Debris
Shape & HBRUnknown
Radar Cross SectionSmall (<0.1 m²)

Expand to show TLE details & history

TLE from 11 hours ago
0 SL-16 DEB
1 22616U 93016AA  24361.05989701  .00000180  00000-0  20952-3 0  9991
2 22616  70.9947 234.2426 0188945 221.9768 256.2178 13.73831124591175
Epoch: 2024-12-26T01:26Z
Definitive object data (Epoch: 2024-12-26T01:26:15.101Z)
Latitude58.21587°
Longitude-95.9372°
Altitude1,030.738 km
Speed7.324 km/s
True Right ascension01h 22m 40s
True Declination58° 04' 03"
Sunlit
Object was in daylight at TLE epoch
Visualization TLE readout
Latitude-37.86968°
Longitude-47.81094°
Altitude860.551 km
Speed7.491 km/s
Apparent Right ascension02h 23m 47s
Apparent Declination-44° 39' 14"
Sunlit
Object is in daylight
Visualization observer readout
Local Sidereal Time11:46:33
Azimuth247.587° W
Elevation-60.827°
Doppler factor1
Orbital elements
Apogee altitude1,122.914 km
Perigee altitude844.713 km
Semi-major axis7,361.951 km
Eccentricity0.0188945
Inclination70.9947°
RAAN234.2426°
Arg. of periapsis221.9768°
True anomaly254.12722°
Mean anomaly256.2178°
Eccentric anomaly255.17128°
Mean motion3.43601 °/min
BSTAR0.00020952
Orbital period104.77 mins
Loading maneuver chart data...
Loading historical data...
Loading historical data...
Loading historical data...
Loading historical data...
Loading historical data...
Loading historical data...
Loading historical data...

SL-16 DEB Visibility forecast

Observer location: undefined°, undefined

Span
Click to sort rows by Start time (UTC) header in descending order
Start Az.
Max El. time (UTC)
Max El. Az.
Max El.
End time (UTC)
End Az.
13 mins2024-12-26 16:41:03.362Z182.838° SSW2024-12-26 16:47:03.362Z117.374° SE40.256°2024-12-26 16:54:03.362Z31.213° NE
10 mins2024-12-26 18:30:03.362Z253.465° W2024-12-26 18:35:03.362Z306.72° NW25.939°2024-12-26 18:40:03.362Z359.308° N
10 mins2024-12-27 01:54:03.362Z358.375° N2024-12-27 01:59:03.362Z63.496° ENE29.406°2024-12-27 02:04:03.362Z120.252° SE
9 mins2024-12-27 03:42:03.362Z312.357° NW2024-12-27 03:46:03.362Z253.701° W31.819°2024-12-27 03:51:03.362Z191.926° SSW
|